www.pogodaiklimat.ru
ПОГОДА в Беверли
Время
и дата
15:53 23.09
16:53 23.09
17:53 23.09
18:53 23.09
19:53 23.09
20:53 23.09
21:53 23.09
22:53 23.09
23:53 23.09
00:53 24.09
01:53 24.09
02:53 24.09
03:53 24.09
04:53 24.09
05:53 24.09
06:53 24.09
07:53 24.09
08:53 24.09
09:53 24.09
10:53 24.09
11:53 24.09
12:53 24.09
13:53 24.09
14:53 24.09
15:53 24.09
16:53 24.09
17:53 24.09
18:53 24.09
19:53 24.09
20:53 24.09
21:53 24.09
22:53 24.09
23:53 24.09
00:53 25.09
01:53 25.09
02:53 25.09
03:53 25.09
04:53 25.09
05:53 25.09
06:53 25.09
07:53 25.09
08:53 25.09
09:53 25.09
10:53 25.09
11:53 25.09
12:53 25.09
13:53 25.09
14:53 25.09
Ветер
(напр.,м/с)
Видим. Явления Облачность Т
(С)
Тd
(С)
f
(%)
Тe
(С)
Тes
(С)
Комфортность P
(гПа)
Po
(гПа)
Тmin
(С)
Tmax
(С)
R
(мм)
R24
(мм)
S
(см)
СЗ 11
{16}
16 км ясно +12.8 +3.9 55 +10 +10 1007.1 1003.4
СЗ 9
{13}
16 км 2/2 1110 м +10.6 +3.3 61 +7 +7 1008.0 1004.4
СЗ 9
{13}
16 км 2/0 3000 m
[Ac]
+9.4 +2.2 61 +5 +5 1008.2 1004.4
СЗ 10
{14}
16 км ясно +9.4 +2.2 61 +5 +5 1009.0 1005.4 +9.4 +15.6
СЗ 7
{10}
16 км ясно +9.4 +2.2 61 +6 +6 1009.0 1005.4
СЗ 9
{12}
16 км ясно +9.4 +2.2 61 +5 +5 1008.8 1005.4
СЗ 7
{13}
16 км ясно +9.4 +1.7 59 +6 +6 1008.7 1005.1
СЗ 8
{12}
16 км ясно +9.4 +1.7 59 +6 +6 1008.4 1004.7
СЗ 5
{10}
16 км ясно +8.9 +2.2 63 +6 +6 1009.0 1005.4
СЗ 6
{9}
16 км ясно +8.9 +2.2 63 +5 +5 1009.2 1005.8 +8.9 +9.4
СЗ 7
{11}
16 км ясно +8.9 +1.7 61 +5 +5 1008.9 1005.4
СЗ 7
{12}
16 км ясно +8.3 +1.7 63 +4 +4 1009.2 1005.8
З 6
{11}
16 км ясно +8.3 +1.7 63 +5 +5 1009.2 1005.4
СЗ 6
{10}
16 км ясно +8.9 +1.7 61 +5 +5 1009.3 1005.8
СЗ 6
{10}
16 км ясно +8.9 +1.7 61 +5 +5 1009.8 1006.1
З 4 16 км ясно +9.4 +2.2 61 +7 +7 1010.4 1006.8 +8.3 +9.4
СЗ 6
{9}
16 км ясно +11.1 +2.2 54 +8 +9 1010.5 1006.8
СЗ 7
{12}
16 км ясно +13.3 +2.8 49 +11 +12 1010.5 1006.8
СЗ 7
{10}
16 км ясно +15.0 +2.8 44 +13 +15 1010.2 1006.8
СЗ 8
{12}
16 км ясно +17.2 +3.3 39 +16 +18 1009.5 1006.1
СЗ 10
{15}
16 км ясно +17.8 +3.3 38 +17 +17 1009.5 1005.8
СЗ 7
{13}
16 км ясно +18.3 +3.9 38 +18 +21 1009.2 1005.8 +9.4 +18.3
СЗ 7 16 км ясно +19.4 +4.4 37 +19 +22 1008.9 1005.4
СЗ 6
{11}
16 км ясно +18.9 +3.9 37 +19 +22 1008.2 1004.7
СЗ 7
{10}
16 км ясно +18.9 +4.4 38 +19 +20 1008.2 1004.7
З 4 16 км ясно +17.8 +4.4 41 +18 +19 1008.4 1004.7
З 3 16 км ясно +15.6 +5.0 49 +15 +15 1008.8 1005.4
штиль 0 16 км ясно +15.0 +5.0 51 +15 +15 1009.1 1005.4 +14.4 +19.4
ЮЗ 2 16 км ясно +12.8 +5.0 59 +12 +12 1009.6 1006.1
штиль 0 16 км ясно +11.1 +5.6 69 +11 +11 1010.0 1006.4
штиль 0 16 км ясно +11.1 +5.6 69 +11 +11 1010.1 1006.4
штиль 0 16 км ясно +10.6 +6.1 74 +10 +10 1010.1 1006.4
З 2 16 км ясно +8.3 +6.1 86 +6 +6 1010.0 1006.4
штиль 0 16 км ясно +10.0 +6.7 80 +9 +9 1010.1 1006.4 +8.3 +15.0
штиль 0 16 км ясно +8.9 +6.1 83 +8 +8 1009.8 1006.1
штиль 0 16 км ясно +7.2 +5.6 90 +6 +6 1009.6 1006.1
штиль 0 16 км ясно +6.7 +5.6 93 +6 +6 1009.1 1005.4
штиль 0 16 км ясно +6.7 +5.6 93 +6 +6 1008.7 1005.1
штиль 0 16 км ясно +7.2 +6.7 97 +6 +6 1008.9 1005.4
штиль 0 16 км 2/0 3300 m
[Ac]
+10.6 +8.3 86 +10 +10 1008.4 1004.7 +6.1 +10.6
ЮЗ 2 16 км ясно +13.9 +8.9 72 +13 +14 1008.3 1004.7
ЮЗ 2 16 км ясно +15.6 +9.4 67 +16 +19 1008.0 1004.4
ЮЗ 3 16 км ясно +17.2 +9.4 60 +17 +22 1007.5 1004.1
Ю 6 16 км ясно +18.3 +8.9 54 +18 +22 1007.0 1003.4
ЮЗ 5 16 км 5/0 2100 m
[Ac]
+18.9 +8.9 52 +19 +23 1006.3 1002.7
ЮЗ 5 16 км ясно +18.9 +8.9 52 +19 +25 1005.4 1001.7 +10.6 +19.4
Ю 4 16 км ясно +19.4 +10.0 55 +20 +27 1004.7 1001.0
Ю 5 16 км 8/2 1170 m
[Ac]
+18.9 +12.8 68 +20 +21 1004.5 1001.0
Местоположение метеостанции Beverly Municipal Airport: широта 42.5836 долгота -70.9164 высота над уровнем моря 33 м.
В архиве по умолчанию представлена погода в Беверли за последние 1-2 суток. Обновление информации о фактической погоде в базе происходит ежечасно! Архивные данные за месяц целиком и за предыдущие месяцы Вы можете получить, выбрав интересующий диапазон дат из раскрывающегося списка и нажав кнопку "Ввод!".
Внимание! Архив погоды МЕТАР в базе сайта по станциям, не включенным в климатический монитор, хранится не более 60 дней. Нет смысла пытаться выбрать более раннюю дату.
*Определитесь, кто Вы:
Внимание! Время в таблицах - местное (без учета летнего времени). Для получения всемирного времени необходимо вычесть поправку, которая равна -5 ч.
Смотрите также архив погоды в соседних городах и на ближайших метеорологических станциях:
Партнеры нашего сайта:      
Пояснения к столбцам:
  • Ветер - указаны скорость ветра в м/с - средняя за 10 мин, порывы в срок и между сроками (в фигурных скобках) и направление, откуда дует ветер: С - северный,
  • СВ - северо-восточный, В - восточный, ЮВ - юго-восточный, Ю - южный, ЮЗ - юго-западный, З - западный, СЗ - северо-западный.
  • Видимость - горизонтальная дальность видимости в метрах или километрах. При видимости от 1 до 10 км при отсутствии осадков обычно наблюдается дымка, при ухудшении видимости до 1 км и менее - туман. В сухую погоду видимость может ухудшаться дымом, пылью или мглою.
  • Явления - указаны атмосферные явления, наблюдавшиеся в срок или в последний час перед сроком; фигурными скобками обозначены явления, наблюдавшиеся между сроками (за 1-3 часа до срока); квадратными скобками обозначены град или гололедные отложения с указанием их диаметра в мм.
  • Облачность - указаны через наклонную черту общая и нижняя облачность в баллах и высота нижней границы облаков в метрах; квадратными скобками обозначены формы облаков: Ci - перистые, Cs - перисто-слоистые, Cc - перисто-кучевые, Ac - высококучевые, As - высокослоистые, Sc - слоисто-кучевые, Ns - слоисто-дождевые, Cu - кучевые, Cb - кучево-дождевые. Подробнее классификацию облаков см. в Атласе облаков (PDF).
  • T - Температура воздуха - температура, измеренная на высоте 2 м над землей.
  • Td - Температура точки росы - температура, при понижении до которой содержащийся в воздухе водяной пар достигнет насыщения.
  • f - Относительная влажность воздуха - влажноcть воздуха, измеренная на высоте 2 м над землей.
  • Te - Эффективная температура - температура, которую ощущает одетый по сезону человек в тени. Характеристика душности погоды. При расчете учитывается влияние влажности воздуха и скорости ветра на теплоощущения человека.
  • Tes - Эффективная температура на солнце - температура, которую ощущает человек, с поправкой на солнечный нагрев. Характеристика знойности погоды. Зависит от высоты солнца над горизонтом, облачности и скорости ветра. Ночью, в пасмурную погоду, а также при ветре 12 м/с и более поправка равна нулю.
  • P - Атмосферное давление - приведенное к уровню моря атмосферное давление.
  • Po - Атмосферное давление - измеренное на уровне метеостанции атмосферное давление.
  • Tmin - Минимальная температура - минимум температуры воздуха на высоте 2 м над землей.
  • Tmax - Максимальная температура - максимум температуры воздуха на высоте 2 м над землей.
  • R - Количество осадков - Количество выпавших осадков за период времени, мм. При наведении курсора мыши на число - период времени, за который выпало указанное количество осадков.
  • R24 - Количество осадков - Количество выпавших осадков за 24 часа, мм.
  • S - Снежный покров - Высота снежного покрова, см. При наведении курсора мыши на число - состояние снежного покрова и степень покрытия местности в баллах.